Theta_e
347 348 348 349 349 350 350 351 351 352 352 352 353 353 352 352 352 353 353 353 352 352 352 352 352 349 344 342 342 342 343 344 345 345 345 344 348 354 360 359 358 359 358 358 358 357 357 357 357 357 356 356 356 357 357 357 356 356 356 356 357 357 357 357 358 358 358 358 358 358 358 358 358 358 358 358 358 358 358 358 358 358 357 357 357
348 348 348 349 349 349 351 351 351 352 352 353 353 352 352 350 351 351 352 351 350 349 353 350 349 349 342 341 342 343 343 344 345 345 345 346 347 352 362 361 360 360 359 359 359 359 358 359 358 358 359 358 358 358 358 357 357 357 358 358 358 359 359 359 359 360 360 360 360 359 359 360 360 360 360 359 359 360 360 360 360 359 360 359 359
349 348 349 349 348 347 349 351 351 352 353 353 353 353 351 350 351 352 351 350 351 351 352 349 344 340 342 341 342 343 344 345 345 346 346 346 347 349 355 363 362 361 361 360 360 359 359 359 359 359 359 358 359 359 358 359 359 360 360 360 361 361 361 361 361 361 362 362 362 361 361 361 361 361 361 361 361 361 361 361 361 361 361 361 361
350 349 350 349 348 349 349 349 351 351 353 352 351 354 354 353 355 354 355 354 353 349 349 348 345 340 338 340 342 343 344 345 345 346 345 345 346 348 350 356 364 363 362 362 361 361 361 361 360 360 360 360 360 360 360 360 360 361 361 362 362 363 363 362 362 363 363 363 363 363 363 362 362 363 363 362 363 362 362 362 362 362 362 362 361
350 351 355 350 349 349 350 353 351 352 353 358 356 349 350 350 349 354 352 352 349 349 353 350 345 339 338 338 341 343 345 345 345 345 345 346 345 347 349 353 354 363 363 363 363 362 362 362 362 362 362 362 362 362 362 362 361 361 362 362 363 363 364 364 364 364 365 365 365 364 364 364 363 364 364 364 363 364 363 363 363 363 362 362 362
350 350 351 351 350 349 349 349 351 355 357 354 349 350 348 349 349 352 359 354 349 351 350 347 347 344 338 338 340 343 344 344 343 344 345 345 346 347 348 349 352 354 357 363 363 363 363 363 362 362 363 363 363 363 363 363 363 362 363 364 365 365 365 366 366 366 366 366 366 366 366 366 366 365 365 365 364 365 365 364 365 364 364 363 363
353 351 350 350 350 348 350 351 354 359 356 356 353 352 351 351 354 349 349 348 350 354 351 347 346 344 343 339 338 341 344 344 344 344 344 344 345 346 347 349 351 353 355 355 363 364 364 364 364 364 364 363 363 364 364 364 364 365 365 365 366 366 366 367 367 367 368 368 368 368 367 367 367 367 366 366 365 366 366 366 366 365 365 364 363
354 352 350 350 349 348 350 354 357 358 357 354 355 349 349 353 356 353 346 348 353 350 349 349 348 346 344 342 337 344 342 343 344 345 346 344 344 344 345 347 349 351 358 353 353 357 363 365 365 365 365 365 365 365 365 365 366 366 367 367 367 368 368 369 369 369 369 369 369 369 369 368 368 367 367 367 366 366 366 366 366 365 365 364 363
356 356 352 350 349 350 351 356 360 356 355 352 350 354 349 355 350 358 349 348 348 351 351 350 351 349 343 336 337 343 341 342 343 345 347 343 342 343 343 345 348 358 353 353 352 352 357 363 365 366 366 366 365 366 367 367 366 366 366 367 368 370 370 370 370 370 369 369 369 369 369 369 368 368 368 368 367 367 367 367 367 366 366 365 364
360 359 353 352 351 351 352 356 358 355 355 351 348 349 349 349 349 351 355 351 349 347 349 350 354 350 346 338 338 341 339 340 343 352 344 343 343 342 343 344 347 348 351 351 352 351 350 354 361 364 367 367 367 367 367 367 367 367 366 366 366 367 368 369 370 369 368 369 369 369 369 369 369 369 368 368 368 368 367 366 366 366 366 366 365
360 360 353 355 352 352 354 357 358 355 353 351 348 353 354 349 349 351 355 354 350 348 350 351 353 347 344 340 339 339 338 339 345 346 343 344 344 346 346 345 346 347 348 349 349 349 347 346 345 347 352 362 366 368 368 369 368 368 368 367 367 367 367 369 368 367 368 370 370 369 370 369 368 368 369 368 369 367 366 366 366 366 366 365 365
359 358 357 356 352 353 355 359 358 354 351 349 349 346 346 348 349 358 354 351 353 351 349 348 344 335 342 336 336 338 337 341 341 342 344 343 344 348 347 347 347 348 349 350 349 349 347 346 350 345 346 351 358 362 366 369 370 370 371 371 371 371 372 373 370 368 368 370 370 369 367 367 369 369 369 369 368 367 367 366 366 366 366 366 365
360 356 355 360 355 354 355 357 357 355 352 350 349 350 350 350 354 356 355 345 345 349 350 345 334 332 332 332 337 342 350 343 339 338 339 340 340 343 346 346 345 345 349 351 351 351 349 348 347 346 346 345 347 355 360 364 367 368 367 368 369 370 370 372 372 369 368 370 370 367 366 366 367 369 368 368 367 367 367 366 366 366 366 366 365
362 358 359 357 354 354 354 356 356 358 355 356 352 361 358 354 356 351 353 349 345 351 353 340 336 328 328 329 333 335 344 345 342 338 337 337 337 338 341 342 342 342 343 346 350 352 351 351 350 349 347 346 346 346 348 351 356 363 366 367 369 371 372 374 376 376 371 371 369 367 367 366 367 367 367 367 366 367 366 365 365 366 365 365 365
361 363 359 357 355 354 354 352 354 358 359 354 353 354 354 353 354 352 348 348 353 356 353 341 336 338 333 330 324 326 333 332 338 343 342 336 334 335 339 339 340 340 340 341 343 347 351 352 351 350 349 348 348 348 350 358 357 364 364 363 363 367 368 370 372 374 370 372 369 369 368 367 367 367 367 366 366 366 365 365 365 365 365 365 365
361 362 360 359 356 354 354 355 355 360 355 351 350 354 353 352 354 358 349 343 346 348 358 349 341 330 328 329 324 325 322 326 330 339 343 340 334 333 338 338 338 337 339 339 340 342 343 347 350 351 352 351 352 352 353 354 358 365 368 368 366 365 367 369 372 373 371 371 369 368 367 367 367 366 366 365 366 365 365 365 365 365 365 365 365
361 361 361 358 357 355 356 356 353 357 356 349 350 352 353 353 352 355 352 345 345 346 349 353 349 341 334 328 324 324 323 325 333 331 338 337 337 336 337 338 335 334 338 337 339 339 341 342 344 348 350 351 351 352 354 355 356 364 365 367 369 367 367 371 373 375 376 374 371 369 368 367 366 365 365 367 367 366 366 365 364 364 364 363 364
360 361 361 360 356 357 355 357 356 357 358 354 352 352 350 351 354 354 353 351 347 342 342 350 353 352 339 331 329 326 326 331 328 323 334 346 343 342 334 335 335 336 337 338 337 336 345 341 341 342 345 346 348 350 352 354 360 358 356 355 365 364 365 366 370 375 377 373 370 369 368 366 365 365 366 368 368 365 365 363 363 363 363 363 364
359 359 361 360 357 356 355 357 356 354 360 355 352 353 354 353 358 353 352 358 346 343 345 347 344 347 353 354 354 346 338 333 330 332 326 331 336 338 337 338 339 334 335 337 338 337 337 340 340 340 341 343 346 348 350 352 359 362 365 365 364 365 364 363 364 367 372 373 370 368 368 366 366 366 365 365 365 364 363 363 363 363 363 364 363
358 357 360 360 359 356 356 356 356 357 362 362 355 354 354 356 360 355 359 356 347 346 346 345 340 342 352 351 352 348 342 342 337 333 329 328 329 337 337 337 338 339 342 340 340 338 336 335 335 338 340 342 345 346 349 351 352 353 355 360 362 364 364 363 365 366 369 372 371 368 367 366 366 365 364 365 364 364 362 362 363 363 364 365 363
357 357 359 360 364 359 357 356 355 355 365 361 359 357 355 354 355 353 352 355 353 351 347 347 342 343 342 343 343 343 343 343 343 340 333 329 328 331 331 335 334 335 337 339 339 340 343 342 343 352 347 345 344 345 347 349 349 350 356 359 362 364 365 364 363 366 367 368 372 368 367 367 366 366 365 365 364 364 363 362 363 364 366 364 363
356 357 357 359 361 360 359 357 355 357 363 359 356 355 354 354 353 352 353 354 352 355 353 348 346 344 344 343 339 338 337 337 338 337 336 332 330 330 331 331 329 331 338 338 340 343 344 343 343 341 345 347 345 345 346 347 349 351 353 360 364 365 365 364 363 365 367 366 367 367 367 366 366 366 366 365 365 365 364 363 362 362 362 362 362
356 358 357 358 359 362 361 358 358 362 363 357 354 355 356 355 356 356 356 352 349 350 355 356 349 350 346 341 339 338 336 335 334 338 336 333 330 330 333 338 333 332 335 341 350 347 344 344 341 340 341 342 342 344 346 347 353 355 359 361 360 362 362 362 362 364 362 363 365 366 367 367 367 366 366 365 365 364 364 363 362 362 362 362 361
353 356 357 358 358 359 362 359 360 357 358 356 354 356 356 356 355 353 353 353 352 356 349 351 353 346 346 345 342 343 340 339 339 338 337 335 333 331 332 333 335 336 340 344 346 345 346 344 343 343 345 348 350 354 353 354 352 362 361 360 359 359 360 362 363 363 362 361 359 361 362 363 363 364 364 364 364 364 364 364 363 363 363 362 361
351 354 356 357 357 356 355 356 356 358 358 356 355 356 354 355 356 358 355 354 352 354 350 347 350 347 346 346 344 345 343 343 346 343 338 337 335 331 333 338 334 335 337 344 342 346 347 347 348 347 347 349 352 351 353 354 352 357 361 357 357 358 358 359 361 361 359 358 358 360 361 361 361 361 361 361 361 362 362 363 363 363 363 363 363
352 353 356 357 358 358 358 357 356 356 358 357 356 357 355 355 358 354 355 353 354 354 352 356 352 351 351 347 347 346 346 346 344 342 340 338 335 334 335 336 340 340 339 341 342 342 343 347 349 348 348 352 352 353 352 352 353 358 360 358 354 353 356 356 359 359 358 357 357 358 358 358 359 360 359 359 359 359 360 360 361 362 364 365 363
353 354 357 357 357 357 357 356 356 357 358 357 361 358 358 358 359 353 354 354 355 357 355 355 355 353 351 347 348 348 347 345 345 344 343 339 340 339 339 337 335 332 337 337 340 341 342 345 349 350 350 356 351 351 353 353 356 359 362 352 350 352 352 353 354 355 355 356 356 356 355 355 356 359 358 359 358 358 359 359 360 360 360 360 360
354 355 356 356 355 356 357 358 356 359 359 358 357 357 357 356 354 357 354 365 356 355 353 355 356 353 352 351 349 349 350 347 345 345 344 345 347 347 341 336 333 331 331 331 331 336 345 342 342 346 349 350 352 351 357 355 350 358 358 350 348 348 351 351 351 350 350 350 350 350 350 352 353 354 357 358 357 356 356 357 360 362 360 359 359
353 357 355 355 355 355 355 357 357 359 359 359 359 357 356 357 356 353 354 354 358 354 353 354 354 357 351 352 352 351 352 349 346 346 346 348 347 348 347 342 336 334 329 329 327 332 340 346 343 344 348 351 351 352 351 350 353 357 350 349 348 347 348 347 349 346 346 346 347 347 349 350 351 354 355 355 355 356 357 355 359 361 359 359 360
356 357 356 354 354 361 355 356 357 359 360 360 359 358 356 356 356 354 355 354 353 354 356 356 356 353 356 352 353 350 351 351 348 347 347 348 349 350 350 347 342 338 333 331 331 333 338 344 344 343 348 352 352 352 352 350 355 354 350 349 349 349 346 348 348 346 345 345 345 346 348 350 352 353 351 351 352 351 352 354 357 358 359 359 359
357 356 356 354 354 354 355 355 357 358 359 359 358 357 356 356 357 356 355 354 353 352 352 357 358 357 353 351 349 348 349 351 349 349 350 349 350 350 349 348 345 343 339 334 332 336 344 341 344 349 349 350 352 351 350 350 353 353 351 350 350 352 350 349 348 346 346 345 344 344 344 346 348 347 346 348 349 350 352 354 356 357 357 356 357
356 356 356 355 354 353 354 356 356 358 358 359 359 357 355 356 356 357 357 354 354 353 355 356 360 357 353 352 351 349 350 350 351 350 349 352 354 350 349 348 345 346 344 339 336 337 342 346 347 349 351 349 351 348 347 348 352 355 351 351 352 353 350 349 350 348 346 345 344 343 342 343 343 343 345 347 348 351 353 355 354 353 352 352 351
355 355 355 355 354 354 354 355 356 356 357 357 357 357 355 355 355 354 354 353 354 354 355 355 355 355 354 352 352 352 351 351 351 352 351 351 352 348 347 345 344 344 346 342 337 339 340 343 346 347 350 350 347 345 345 346 348 351 353 351 351 349 349 350 352 350 348 346 344 343 342 341 341 340 342 346 348 350 351 352 349 346 346 345 344
355 354 354 355 355 354 354 353 354 356 357 357 357 357 356 355 355 357 356 353 352 353 351 352 353 355 354 351 352 352 352 353 354 353 351 351 352 349 346 346 343 342 345 342 339 336 336 339 341 344 345 349 344 344 344 345 348 351 350 350 350 350 351 352 353 355 349 346 343 342 341 341 341 340 342 343 345 346 346 344 341 339 339 339 335
355 354 353 354 354 353 354 353 353 355 356 357 357 356 356 355 355 355 357 355 353 353 353 352 353 353 353 353 354 354 355 352 353 354 354 350 351 350 348 347 345 343 345 345 339 337 337 337 339 341 341 342 343 344 346 348 349 350 348 348 349 352 354 354 355 356 350 347 344 342 342 341 341 340 340 339 342 341 339 338 334 333 334 333 331
353 354 354 353 353 353 353 354 353 354 355 356 356 356 356 356 355 355 355 355 355 355 354 354 353 354 354 352 353 354 352 350 350 349 350 350 348 348 347 345 344 344 343 345 344 340 336 335 336 339 341 340 342 344 347 349 346 346 346 348 350 352 353 355 355 356 353 347 345 344 343 342 341 341 339 339 337 334 333 333 333 334 334 331 330
353 353 353 353 352 352 353 353 352 351 352 353 353 354 354 355 356 356 355 355 356 355 355 355 360 355 354 354 354 352 350 349 349 348 348 348 349 346 345 343 344 344 346 345 343 342 338 337 338 337 338 340 342 344 345 344 343 345 346 347 349 351 352 355 356 357 351 347 347 345 343 343 343 342 341 339 337 335 335 335 334 334 332 329 328
352 352 352 352 352 351 351 348 347 349 349 350 349 349 350 350 351 354 356 356 356 356 356 356 356 356 356 355 354 353 351 349 349 349 347 346 345 344 343 343 342 341 341 341 343 342 340 340 338 339 338 341 340 339 341 344 344 345 346 347 348 349 351 352 354 357 357 355 354 355 348 346 346 342 341 339 337 336 337 336 336 335 332 328 325
352 351 351 351 352 351 348 349 348 348 349 350 349 348 349 349 349 350 352 354 356 356 356 356 357 356 356 355 354 354 352 351 350 350 349 346 346 343 344 343 341 340 341 341 343 341 341 340 340 340 340 339 339 340 342 343 343 344 342 346 348 350 350 349 352 354 354 353 351 349 349 348 347 348 338 337 338 338 338 337 337 337 336 330 326
350 350 350 350 351 350 349 349 349 348 348 349 348 348 349 349 349 348 349 351 353 355 356 356 356 356 355 355 355 354 353 352 351 350 348 347 345 343 342 341 343 342 341 341 341 341 339 340 339 339 336 336 338 340 342 340 340 339 343 345 346 349 351 351 350 350 351 351 350 352 350 351 350 348 342 343 343 342 341 341 343 342 338 332 329
350 350 351 351 351 350 349 349 348 348 348 349 349 348 347 348 348 348 348 349 351 353 355 355 355 354 354 355 354 354 356 362 364 362 358 356 348 344 343 342 343 342 340 339 341 339 339 339 341 338 336 335 336 335 338 336 337 340 343 345 345 350 350 349 349 350 351 348 349 350 352 354 353 352 352 352 353 352 349 345 346 345 339 332 331
348 349 349 350 350 350 349 348 348 349 349 349 353 355 354 349 347 347 348 348 350 351 352 353 353 352 352 352 355 363 365 366 368 371 371 367 363 353 346 342 343 342 339 338 339 341 341 338 337 335 335 335 336 336 337 338 342 343 346 347 347 349 347 345 345 345 349 348 347 347 350 354 352 350 351 350 352 353 352 353 350 341 337 333 332
346 348 349 347 348 349 349 349 348 349 350 351 353 342 344 352 353 347 346 347 348 349 350 350 350 350 349 349 349 356 363 368 362 366 365 368 367 365 363 359 352 344 340 339 340 340 339 339 335 335 335 336 339 340 339 342 343 343 345 346 347 345 342 339 338 343 347 348 346 346 348 352 350 348 349 349 349 350 352 353 340 338 334 334 333
346 347 347 347 347 348 349 349 348 349 349 353 340 339 341 342 353 352 349 349 350 349 349 349 349 349 348 348 349 350 353 353 352 352 360 369 366 366 365 364 363 360 355 347 343 339 336 336 336 338 336 339 340 340 342 341 343 344 345 344 341 341 340 338 338 337 345 349 346 345 345 349 349 349 346 346 347 348 350 342 337 336 334 333 333
345 343 343 345 345 346 347 347 348 348 348 344 337 337 335 334 336 346 344 346 349 349 348 347 347 347 347 347 348 352 353 368 362 347 347 354 366 362 364 366 367 363 349 347 348 346 341 339 340 339 340 339 339 343 344 346 346 346 343 341 339 338 337 338 339 340 345 349 347 344 342 346 346 346 342 341 343 346 349 343 338 336 334 333 333
344 344 346 344 343 343 345 345 344 346 343 332 328 329 330 330 332 337 340 343 347 349 348 347 347 347 345 344 346 347 343 344 342 344 346 348 350 352 350 345 346 357 362 348 345 347 349 345 342 343 344 344 344 343 350 349 347 345 341 339 338 338 339 339 342 344 347 351 346 343 338 341 344 343 337 337 341 344 347 341 334 334 335 332 332
345 344 343 343 343 345 345 346 345 341 329 320 322 324 323 324 328 340 342 345 346 347 346 346 345 344 344 346 348 346 342 338 340 344 346 348 348 350 346 347 346 348 349 352 353 351 349 349 346 346 347 347 347 348 349 346 344 344 344 342 341 341 342 343 343 344 347 348 346 339 333 335 339 336 333 335 339 341 344 341 336 336 334 332 332
346 345 345 346 346 346 348 344 340 331 325 318 318 319 319 321 329 345 346 344 344 343 344 344 345 345 346 348 346 342 339 337 342 339 350 351 349 349 348 347 345 346 345 347 335 343 345 343 346 349 349 345 338 340 341 338 337 336 340 341 340 338 336 334 336 340 340 345 342 331 328 327 333 330 331 335 337 337 342 348 340 338 335 333 330
343 344 344 345 346 347 345 340 336 332 327 321 315 315 316 318 328 344 345 345 343 343 343 347 350 350 349 348 344 340 337 336 333 325 335 357 346 345 342 341 341 342 341 340 337 336 335 333 331 332 330 332 330 327 328 328 331 334 335 334 336 338 335 333 334 335 338 340 342 333 327 324 327 328 330 332 335 336 341 347 345 337 333 330 326
341 343 342 342 342 344 343 336 335 331 328 323 313 313 314 316 327 338 345 346 343 342 345 348 349 351 352 358 350 340 337 334 323 325 333 347 340 339 341 338 339 339 339 334 339 341 339 339 337 336 336 336 336 337 333 330 330 338 338 334 338 335 333 333 330 331 336 337 338 333 326 323 327 329 329 331 334 333 340 340 339 339 335 327 324
341 342 344 341 340 339 339 338 339 329 328 326 315 311 313 314 327 336 343 348 347 346 347 348 349 349 349 354 351 342 335 330 319 322 329 342 337 336 336 336 337 337 334 331 336 339 340 340 340 345 345 346 342 339 340 337 336 341 336 336 336 333 331 331 332 329 327 331 337 333 326 325 327 328 329 328 325 331 339 333 331 335 333 329 329
Wind_Speed
2 1 1 1 0 1 1 2 1 2 1 2 2 3 3 3 3 4 4 5 5 6 4 5 4 2 3 3 3 3 3 4 3 3 4 5 5 6 11 10 10 10 9 9 8 8 8 8 8 7 7 6 7 7 7 7 7 7 7 8 8 8 8 8 8 8 9 9 10 10 10 11 11 11 11 11 11 12 12 12 12 12 13 12 13
1 1 1 1 1 2 1 2 3 3 2 4 4 4 4 3 4 4 5 5 5 5 4 5 4 2 3 3 4 4 3 4 4 4 5 5 5 5 10 11 11 10 10 9 9 9 8 9 8 8 8 8 8 8 8 8 8 9 8 9 9 9 9 9 9 9 9 9 10 11 11 11 11 12 12 12 12 12 13 13 13 13 13 13 13
1 0 0 1 2 2 3 3 4 4 3 4 3 3 4 4 4 4 4 4 4 4 3 4 4 2 3 4 4 4 4 4 3 4 5 5 5 5 5 11 11 11 10 10 10 10 9 9 9 8 9 9 9 9 9 9 9 9 10 10 10 10 10 9 9 10 9 10 10 11 12 12 12 12 12 12 12 12 12 13 13 13 13 13 13
1 1 2 2 2 2 3 2 4 4 3 3 3 2 2 2 2 2 3 3 4 4 3 3 4 2 3 4 3 4 5 5 4 5 4 4 4 4 4 5 10 11 10 11 10 11 10 10 10 10 10 10 10 10 10 10 10 10 11 11 10 10 10 10 10 10 10 10 11 11 12 12 13 13 12 12 12 12 12 12 12 12 13 13 13
2 2 2 2 2 2 3 3 4 4 1 0 0 1 1 1 2 2 3 2 2 4 3 4 4 2 3 3 4 5 4 4 4 4 4 4 4 4 4 4 3 8 11 11 11 11 11 11 11 11 10 10 11 11 12 11 11 11 11 11 11 11 11 11 11 11 11 11 11 11 12 12 13 13 13 12 12 12 12 12 12 12 12 13 13
2 3 2 2 2 3 3 4 3 3 0 1 1 1 2 1 2 1 3 1 2 3 2 1 2 1 2 4 4 5 5 5 5 4 3 4 4 4 4 4 4 3 4 10 11 11 12 11 11 11 11 11 11 12 12 12 12 12 12 12 12 12 12 12 12 11 11 11 11 11 12 12 12 12 13 12 12 12 12 12 12 13 12 13 13
2 3 3 3 3 3 3 4 3 1 1 1 1 1 0 2 1 2 2 1 2 2 2 1 2 2 1 4 6 5 4 5 4 3 3 3 3 4 4 4 4 4 4 4 6 11 12 12 11 11 11 11 11 11 12 12 12 12 13 13 13 13 12 12 12 11 11 11 11 11 12 12 12 12 12 12 12 11 11 11 11 11 12 13 13
3 3 4 4 4 4 4 3 1 0 0 0 0 1 2 2 2 0 3 3 4 4 2 3 2 1 0 4 5 5 6 5 4 4 4 3 4 3 4 4 4 4 5 4 4 5 10 11 11 11 11 11 11 11 12 12 12 12 13 13 13 13 13 13 12 11 11 11 12 12 12 12 12 12 12 12 11 10 10 11 10 10 12 13 13
4 3 4 4 4 4 4 2 0 1 0 0 0 1 1 3 3 0 0 2 3 4 4 2 3 1 1 3 5 5 6 6 5 4 3 4 4 4 3 4 4 6 4 4 4 4 7 11 11 11 11 11 11 11 11 12 12 12 13 13 13 13 13 13 12 11 11 11 11 12 12 12 12 12 12 12 11 10 10 11 11 10 11 12 12
4 4 5 4 3 3 2 2 1 1 1 1 1 1 1 1 3 2 1 2 4 3 4 3 3 3 1 2 3 5 5 5 4 3 4 4 4 5 5 4 4 5 5 4 4 4 5 7 10 11 11 11 11 11 11 11 12 13 13 13 13 13 13 12 12 11 11 10 11 11 11 11 12 11 12 12 12 11 11 11 11 11 11 11 11
3 3 4 3 3 2 2 2 2 2 1 1 1 2 1 1 1 3 3 3 3 3 2 3 3 2 3 3 2 2 3 2 3 4 5 5 5 5 3 5 4 4 5 4 4 4 5 5 4 4 6 9 10 11 11 11 11 12 13 14 14 13 13 12 11 11 11 9 10 11 11 11 11 13 12 12 11 11 11 11 11 11 11 10 10
3 3 4 4 3 3 3 2 2 2 1 2 2 2 2 2 3 2 5 4 1 1 1 0 1 3 3 4 3 1 1 1 2 4 4 4 5 2 5 4 4 5 4 5 4 4 4 4 4 5 4 6 9 10 11 11 11 11 11 12 12 12 12 12 12 12 11 10 11 12 12 12 11 12 12 12 12 11 11 11 11 10 10 10 10
2 2 3 3 3 3 2 2 2 2 2 3 2 2 1 1 2 2 2 2 1 1 0 2 2 2 3 4 3 2 1 2 3 3 4 4 3 4 4 4 5 5 6 4 4 4 5 5 5 5 5 5 6 8 11 11 11 12 13 12 12 12 12 12 12 12 12 10 11 12 12 12 11 11 12 13 12 12 11 11 11 10 10 10 10
1 2 2 3 3 2 2 3 2 3 2 2 2 2 2 2 1 3 0 1 2 3 4 1 3 1 2 1 4 4 1 1 2 3 4 4 5 4 4 5 6 5 4 3 5 5 5 5 4 5 5 5 5 5 6 7 8 11 12 12 12 12 12 12 11 11 12 11 12 12 11 11 11 12 12 12 12 11 11 11 11 10 10 10 11
2 2 3 3 4 3 4 3 3 2 1 2 1 3 2 2 1 0 3 1 1 2 3 0 2 1 2 2 1 1 2 2 1 3 4 5 5 5 5 5 7 5 4 3 5 4 4 4 4 5 5 5 5 5 5 6 8 10 11 11 12 12 12 13 12 11 13 12 13 12 11 11 11 11 12 12 11 11 11 10 10 10 10 10 10
2 3 3 3 4 4 3 3 4 2 3 2 1 3 2 2 1 0 1 2 2 2 3 2 2 5 1 0 0 1 2 1 2 5 1 2 3 4 3 5 5 4 3 5 5 3 3 3 5 5 5 5 5 5 5 6 8 10 11 11 12 12 11 12 13 11 13 14 13 12 11 11 11 11 11 11 11 11 10 10 10 10 10 10 10
3 3 2 3 3 3 3 3 3 2 2 2 2 2 2 2 1 1 0 1 2 1 2 3 4 1 5 2 1 1 2 3 2 4 4 2 1 3 4 4 5 4 4 5 2 2 3 3 4 4 5 6 5 6 6 6 6 5 6 8 10 11 11 11 12 12 10 13 13 12 12 11 11 11 11 10 11 11 10 10 10 10 9 9 10
3 3 3 2 3 3 3 2 2 2 2 3 2 2 2 2 1 1 0 0 1 2 1 1 3 3 2 1 3 1 1 1 1 1 5 0 3 3 3 3 3 4 4 3 3 3 3 3 4 5 6 6 6 5 5 6 5 5 5 7 10 11 11 12 12 11 10 12 13 13 12 12 11 11 11 11 11 11 10 10 10 10 9 9 9
3 3 3 3 3 2 2 2 2 2 2 2 2 3 2 2 0 0 1 1 1 1 1 2 2 2 3 2 2 1 2 2 1 0 1 3 3 3 4 4 3 2 3 2 3 4 4 4 4 5 5 5 6 6 5 6 6 7 8 11 12 13 13 13 13 13 11 11 13 13 13 12 12 12 12 12 12 12 11 10 10 10 9 9 9
4 3 3 3 3 3 2 2 2 2 2 3 3 2 1 1 0 1 0 1 2 2 1 2 2 1 2 3 3 2 2 3 3 1 2 0 3 5 2 3 4 2 0 0 2 3 5 5 4 4 5 5 6 5 6 6 5 6 6 10 11 12 13 13 13 13 13 10 12 13 13 13 13 13 13 13 13 13 12 12 11 10 9 8 9
3 4 4 4 3 3 3 3 2 3 2 3 2 1 1 1 1 1 1 0 0 1 1 0 1 1 1 1 2 2 2 2 1 2 1 1 2 2 4 5 3 1 4 3 3 3 4 6 4 3 4 5 5 5 5 5 6 5 6 10 12 12 12 11 12 12 12 12 10 13 13 14 14 14 14 14 13 13 13 13 13 11 8 9 9
3 3 3 4 4 3 3 3 3 3 2 3 2 1 1 1 2 1 1 0 2 0 0 1 1 1 0 1 1 0 1 1 2 2 2 1 0 1 2 1 2 3 3 4 3 4 5 5 4 4 5 5 5 3 4 5 5 4 6 11 11 11 11 11 12 12 12 12 12 13 13 14 14 14 14 15 15 14 14 14 14 14 12 9 9
4 3 4 3 3 3 3 4 3 2 2 2 3 2 2 2 2 1 1 0 0 2 1 1 0 0 0 1 1 1 1 0 1 0 1 0 1 1 2 2 2 3 3 4 5 4 3 3 3 4 4 5 5 4 3 3 3 5 8 10 10 10 11 11 11 12 12 12 12 12 13 14 14 14 14 15 16 15 15 15 15 15 14 12 10
2 3 4 3 3 3 3 3 3 3 3 3 3 2 2 2 2 2 1 1 0 0 1 0 0 0 1 1 0 1 1 0 2 3 2 1 1 1 2 3 1 3 6 5 3 3 4 3 2 2 4 3 3 1 1 2 4 6 5 8 10 10 11 11 11 11 12 12 12 12 13 14 14 14 14 15 16 16 16 15 15 15 15 14 12
3 4 4 4 3 3 3 4 3 3 3 3 3 2 2 3 3 2 2 1 1 1 0 1 1 1 2 1 1 1 1 1 1 3 2 3 3 0 0 0 1 3 3 2 2 5 2 2 3 3 2 4 3 5 4 4 3 6 7 6 10 9 9 9 10 10 11 11 11 12 12 13 13 14 14 15 15 16 16 16 15 15 15 15 14
5 5 5 4 4 4 3 3 3 3 3 3 3 2 2 3 3 3 3 2 1 1 1 1 2 2 1 0 2 2 2 1 2 3 3 2 0 0 1 1 0 2 3 2 2 2 3 4 3 2 3 3 3 3 4 4 4 6 8 6 7 8 9 10 11 12 12 12 12 12 13 14 14 14 15 15 15 15 14 14 14 14 13 13 15
6 5 4 4 4 4 4 3 3 3 3 3 3 2 2 1 2 2 1 2 1 1 1 1 1 1 2 2 2 2 4 3 4 3 3 2 1 2 1 2 4 3 3 2 3 1 3 4 4 2 3 4 5 4 4 4 5 7 7 4 5 9 10 11 12 12 12 12 12 13 13 13 13 12 14 14 15 14 14 13 13 13 13 14 14
4 3 4 4 4 4 4 4 3 3 3 3 3 3 2 2 2 1 2 0 1 1 2 1 2 2 3 2 2 4 4 4 4 4 4 3 2 3 2 2 0 3 4 3 3 3 1 1 3 1 2 3 4 3 4 5 5 8 8 5 5 6 9 11 11 11 11 11 12 11 12 12 12 12 12 14 15 15 14 14 13 13 13 13 13
5 4 4 4 4 5 4 4 4 4 3 3 3 3 2 1 2 2 3 2 1 3 2 2 3 2 3 3 5 4 4 2 3 4 4 3 4 4 4 4 4 1 1 2 3 1 3 0 0 3 2 4 5 4 5 5 6 7 5 4 4 4 8 10 10 11 11 12 12 12 11 11 12 12 12 13 13 13 12 12 11 11 12 12 13
5 4 4 4 4 5 4 4 4 3 4 4 3 3 2 2 2 3 3 1 2 2 2 2 3 2 2 3 3 4 3 2 4 4 4 5 4 5 4 4 5 3 3 1 4 3 4 3 2 2 4 6 4 5 3 4 6 6 4 4 4 4 9 10 11 12 13 13 14 14 14 14 13 13 13 13 12 12 12 12 13 14 14 13 13
4 4 4 4 4 4 4 4 4 4 4 4 3 3 3 3 3 4 3 2 2 3 3 2 3 2 3 3 3 4 4 3 2 3 3 3 4 4 4 3 5 3 4 4 0 3 3 2 3 3 2 4 4 4 4 4 4 4 4 4 4 8 9 8 11 12 13 14 14 14 15 15 14 13 13 13 12 12 12 12 12 13 13 14 13
5 5 5 4 4 4 4 5 5 4 4 4 3 3 3 4 4 4 4 3 3 4 4 3 3 2 2 3 3 4 4 3 4 3 4 3 3 4 4 4 4 3 4 4 4 7 3 3 4 7 4 2 5 4 5 5 6 7 4 5 5 7 6 5 8 12 12 13 13 14 14 14 14 14 13 12 12 13 13 13 13 13 13 13 13
4 5 5 5 5 5 5 5 5 5 5 5 4 4 4 4 4 4 3 3 3 4 3 5 3 3 3 3 4 4 2 3 4 4 3 2 2 2 3 3 4 3 5 4 4 6 5 3 3 4 4 2 3 2 4 5 6 6 7 4 4 4 4 5 6 9 12 13 14 14 14 14 14 14 14 14 14 14 14 14 14 14 14 15 15
5 6 6 5 5 5 5 5 5 5 5 5 5 5 5 5 5 4 4 4 4 4 3 4 4 4 3 3 4 5 2 3 3 3 3 2 3 3 3 4 5 4 4 3 4 2 6 3 3 3 3 0 3 2 3 4 6 5 6 6 5 3 4 5 6 7 11 12 14 13 13 14 14 13 13 14 14 14 14 15 15 14 14 14 14
5 6 6 6 6 5 5 5 5 5 6 6 5 5 6 6 6 5 5 4 5 5 4 5 5 4 3 3 5 4 3 3 3 4 3 4 4 5 5 5 5 5 5 5 3 4 6 6 3 3 1 2 1 4 4 2 3 3 4 5 5 4 3 4 5 6 10 12 13 13 13 13 13 13 13 13 13 13 13 13 13 13 14 14 14
6 6 6 6 5 5 6 5 5 5 6 6 5 6 6 6 6 6 6 5 5 5 6 6 5 5 5 4 5 4 3 3 4 3 4 4 5 5 4 3 3 4 3 4 6 5 3 2 3 2 2 2 4 3 3 3 3 3 3 4 3 4 4 5 5 6 8 12 12 12 13 13 13 13 13 13 13 13 13 12 12 13 15 15 15
7 6 6 5 5 5 6 5 3 2 0 0 0 0 0 0 2 4 5 5 6 6 6 6 6 5 5 5 5 4 3 4 5 4 4 4 4 3 4 3 4 4 4 5 6 4 4 5 5 3 2 2 3 4 2 2 4 3 3 3 3 4 5 4 4 6 8 10 10 11 12 12 13 14 14 14 13 13 12 12 12 15 15 15 15
7 7 7 6 6 6 4 5 5 5 5 5 6 6 6 5 3 2 3 5 6 6 6 6 6 5 5 5 5 5 4 4 6 5 4 5 4 4 5 5 4 3 3 4 4 4 4 5 4 5 2 3 3 3 2 1 3 5 5 5 3 3 4 6 5 5 5 5 5 6 8 9 11 14 14 14 14 14 13 13 13 15 15 15 16
8 8 7 7 6 5 7 7 6 6 5 5 5 4 5 5 6 5 5 5 6 6 6 7 7 6 6 6 6 5 5 6 6 6 6 4 4 5 5 5 4 3 3 4 3 4 4 4 4 5 5 3 2 4 2 1 2 2 3 6 6 3 2 3 7 6 5 6 5 6 7 8 10 9 11 13 13 13 13 12 12 14 14 15 15
8 8 8 8 5 7 8 8 7 6 6 5 5 5 5 6 5 5 6 5 5 6 7 7 7 6 6 6 6 6 6 6 7 7 5 7 5 6 6 4 4 3 4 4 3 4 4 4 5 5 2 3 4 3 3 3 3 2 0 1 6 8 8 4 3 7 5 5 6 7 7 7 8 9 10 10 11 13 12 10 11 14 14 14 14
7 8 6 5 6 7 7 7 6 6 6 6 5 6 6 5 4 6 7 6 6 6 6 7 7 7 6 6 6 7 7 11 13 11 9 8 6 7 6 5 4 4 3 2 3 4 4 4 5 2 2 4 4 3 5 3 3 4 3 1 3 5 5 7 6 3 2 4 5 6 7 5 6 7 7 7 8 10 10 10 9 13 13 13 13
6 6 6 7 8 9 8 8 7 7 7 6 8 13 10 6 6 6 6 6 6 5 6 6 8 7 7 6 6 12 13 14 14 11 10 12 12 8 8 5 5 4 4 4 5 5 4 5 5 3 3 5 5 3 2 3 3 3 4 3 5 6 6 7 4 2 4 3 6 7 7 5 5 6 7 7 7 8 6 6 8 9 11 14 14
7 6 7 8 8 8 9 8 8 7 7 7 13 14 14 13 7 6 6 6 5 6 6 6 7 8 7 6 5 8 8 8 5 7 9 10 11 11 11 7 7 6 4 4 5 4 3 4 2 2 2 4 5 3 3 4 3 2 3 3 4 4 5 7 9 8 1 5 6 5 7 5 4 6 7 6 7 8 7 7 12 14 14 14 15
3 3 7 9 8 7 7 7 7 7 7 8 12 13 12 12 10 6 5 6 6 6 6 6 6 6 7 6 4 4 5 5 4 3 4 5 7 8 10 10 9 10 9 6 5 3 3 3 3 4 2 4 4 3 3 1 3 2 2 2 2 3 4 5 5 5 6 4 5 5 6 4 3 5 7 7 7 7 8 10 13 14 14 15 15
1 2 4 4 2 2 2 6 7 5 5 5 10 10 8 6 5 5 5 6 6 7 7 7 6 6 6 6 4 3 3 5 3 2 2 1 1 1 3 4 5 7 8 6 6 4 5 3 3 4 4 3 3 3 1 1 2 4 3 4 3 2 2 4 5 3 7 4 4 4 5 5 4 6 6 7 7 6 8 10 14 13 14 15 15
3 5 5 4 2 1 1 3 3 4 1 6 6 5 4 3 4 6 5 6 7 7 5 3 2 1 4 6 5 5 4 3 3 3 2 3 3 2 2 1 1 1 2 4 4 2 2 3 3 3 3 3 3 2 3 3 3 5 5 5 3 3 4 4 4 5 6 3 4 4 4 6 5 6 6 7 7 7 6 9 12 13 14 15 15
3 4 7 8 8 7 3 4 3 2 6 9 6 5 5 6 7 7 5 5 5 3 3 5 6 7 7 6 6 7 5 4 4 3 3 3 3 2 2 1 2 2 3 4 2 1 1 2 2 3 2 1 2 3 4 4 4 4 3 4 3 3 4 4 4 3 4 4 6 6 5 7 5 5 5 7 7 7 5 6 11 14 15 15 16
2 2 0 2 3 5 5 5 4 5 0 4 2 2 5 7 10 6 5 5 3 3 4 7 7 6 6 4 2 4 5 5 3 3 3 3 3 3 3 1 2 3 4 3 3 6 4 2 1 0 0 1 2 3 4 4 4 3 2 2 1 1 2 3 3 4 3 3 6 7 4 5 5 5 6 6 6 6 5 4 10 14 14 15 17
2 3 3 2 2 3 4 4 4 3 1 3 4 5 5 7 5 5 3 3 6 9 7 3 2 5 7 6 4 3 5 4 0 1 2 3 3 3 2 2 1 2 3 2 3 6 6 4 2 1 1 3 5 7 6 4 0 1 1 4 5 3 3 5 3 4 5 4 3 6 3 4 6 5 7 6 5 4 4 6 8 11 14 15 16
3 3 3 3 5 5 4 3 3 4 1 5 7 8 9 8 6 5 4 3 5 7 6 6 6 6 8 14 9 6 4 3 2 4 4 1 2 2 2 2 1 1 0 3 2 2 4 3 4 4 1 4 4 3 5 5 3 2 5 5 3 2 4 3 2 2 4 3 3 5 4 3 5 5 7 5 4 2 3 7 7 7 10 12 15
3 3 2 3 5 3 4 2 2 5 3 3 8 9 9 9 5 2 3 4 5 7 6 7 6 5 2 7 8 3 2 1 4 7 7 4 3 2 2 2 3 1 0 2 3 3 4 4 4 4 3 5 4 4 4 9 10 8 5 4 3 5 4 3 2 2 2 3 5 6 5 4 6 7 7 6 4 3 3 7 7 6 7 7 8
Wind_Direction
117 115 75 79 9 301 261 257 263 273 292 289 263 278 279 277 276 279 273 278 279 279 278 277 273 210 203 214 197 197 191 173 186 196 201 204 211 233 212 214 215 218 220 226 227 227 234 237 245 247 256 262 267 273 280 286 289 292 296 300 300 300 301 303 305 303 303 303 304 303 302 301 300 298 297 297 299 299 298 297 295 294 293 293 291
120 80 112 284 309 303 268 262 251 254 237 251 241 242 257 260 258 262 266 264 273 272 277 280 283 240 197 208 201 195 198 192 192 198 199 198 208 225 222 214 219 222 226 230 236 240 242 244 253 256 259 261 259 261 266 272 276 285 291 291 290 289 289 290 290 292 293 294 297 299 298 298 296 297 297 297 298 298 296 294 293 293 291 288 289
123 160 252 263 297 271 252 247 260 252 230 242 228 224 241 243 249 257 260 256 262 279 277 261 265 244 199 196 198 172 199 202 196 196 200 205 204 214 238 225 222 227 233 238 239 244 249 253 254 256 256 260 267 271 273 276 281 284 286 285 285 285 285 285 286 287 288 288 292 296 297 297 297 297 297 298 297 296 297 296 296 295 293 291 288
179 222 229 258 262 248 250 257 258 267 247 248 248 220 211 239 253 261 275 284 289 302 293 294 295 241 186 193 169 186 198 201 202 203 203 199 210 224 228 245 237 232 235 239 241 245 249 253 254 257 260 264 268 269 271 274 276 279 281 283 282 283 284 285 285 286 286 287 289 292 295 296 296 297 298 297 297 297 297 297 296 295 294 294 294
218 228 247 235 247 258 263 249 255 261 264 240 128 20 12 357 326 311 310 315 317 290 308 317 306 265 178 186 165 199 199 197 211 200 204 203 203 219 233 240 254 249 242 240 244 246 247 250 254 259 261 265 267 269 272 274 276 276 277 279 280 282 283 283 284 283 283 284 286 289 291 293 295 296 295 296 296 295 294 294 295 296 296 295 293
206 252 261 260 259 259 261 269 266 285 305 59 7 12 335 331 296 331 284 238 275 252 217 269 301 57 212 164 172 205 190 202 213 209 202 210 200 209 229 236 244 249 261 251 248 249 251 251 253 256 260 264 267 270 272 273 274 274 274 275 276 277 279 280 281 280 280 279 279 283 287 288 289 291 292 292 292 292 291 292 292 294 294 294 293
220 224 253 246 259 265 272 268 293 337 27 1 301 305 324 312 299 281 304 344 318 326 359 309 1 346 265 192 183 192 201 210 208 217 211 216 198 217 224 233 233 236 244 250 257 252 250 251 254 255 258 262 266 269 272 273 273 274 275 276 277 278 278 281 282 282 280 279 278 280 281 282 284 285 287 287 287 286 286 284 286 288 290 292 292
237 224 233 229 235 246 257 280 289 30 19 355 332 350 333 338 295 39 358 330 354 323 304 357 326 314 328 201 192 183 199 204 212 217 212 199 225 229 231 233 234 232 233 235 244 251 251 250 251 254 257 259 261 264 267 270 273 276 278 280 281 281 283 283 283 282 283 282 283 282 282 281 283 284 283 285 285 284 283 283 284 285 288 290 288
240 226 220 229 230 240 257 249 227 151 234 354 355 353 16 338 320 315 176 294 314 300 330 329 316 330 348 180 193 183 193 202 210 210 186 211 232 241 239 239 237 240 242 236 238 246 254 252 250 252 255 257 260 263 265 268 271 273 275 277 280 282 283 283 282 281 281 281 281 282 283 283 284 285 285 285 285 282 280 281 281 279 280 281 282
236 220 209 213 215 219 240 241 188 199 210 296 285 329 3 360 317 305 212 287 289 304 316 332 333 325 16 147 192 193 203 202 202 197 195 223 233 237 236 246 242 241 241 241 240 243 249 257 256 255 254 255 257 259 262 264 267 270 272 274 275 277 279 280 280 281 280 278 277 279 281 284 285 287 288 288 286 282 280 280 279 277 276 273 272
235 207 187 193 178 196 203 228 202 204 210 308 320 326 333 306 313 303 301 256 243 267 268 296 311 319 16 45 134 260 278 224 179 195 212 221 229 236 244 245 242 249 249 249 249 246 250 251 262 266 264 262 261 262 263 263 265 267 269 271 273 273 275 275 277 277 278 273 276 279 281 286 287 287 286 286 285 284 284 282 281 280 276 274 271
206 196 178 163 168 191 203 215 204 171 202 255 266 280 271 323 323 312 322 324 300 264 266 271 309 27 40 37 54 65 262 263 195 217 221 232 238 254 242 241 234 249 248 246 252 257 257 260 257 258 265 273 270 268 268 268 266 265 264 266 267 268 269 271 272 277 278 275 277 283 287 288 285 284 284 285 285 286 286 283 282 279 276 275 271
178 175 168 167 174 187 201 228 209 186 214 235 243 271 257 221 276 302 306 341 310 259 346 87 68 10 23 26 357 357 175 159 207 233 236 237 246 246 258 259 245 240 242 240 246 251 253 254 253 260 263 268 279 279 275 272 268 266 267 267 269 271 273 275 276 281 282 278 280 285 286 287 286 281 283 286 287 288 288 286 285 282 279 277 272
176 196 167 154 160 185 217 219 218 231 227 258 265 279 313 299 265 338 257 292 308 329 337 40 27 122 118 357 347 331 333 114 188 231 230 225 219 221 233 241 251 247 248 237 245 242 246 246 246 248 254 259 266 274 280 280 277 270 269 270 271 274 276 277 275 275 286 285 288 288 288 287 286 286 287 288 290 290 290 288 287 286 283 279 276
200 191 173 173 174 183 214 222 226 227 242 279 329 314 278 276 249 307 323 331 314 293 331 288 139 140 95 82 331 355 325 5 320 259 229 231 213 213 217 223 239 243 242 244 253 258 263 259 252 247 250 251 257 262 267 270 268 270 273 274 275 275 275 277 277 276 285 285 289 291 291 290 289 289 290 291 292 292 291 289 287 286 285 283 279
200 207 197 182 177 197 206 201 224 219 188 235 264 281 309 328 357 181 125 3 353 320 3 11 128 120 65 47 224 107 1 318 323 291 267 254 231 243 224 233 234 235 206 235 244 246 262 277 274 268 257 251 250 255 259 261 270 276 276 277 277 276 275 274 276 274 281 287 290 292 292 290 289 290 292 293 292 292 290 289 287 286 286 286 283
199 218 202 203 193 199 199 213 218 225 202 206 231 255 281 275 271 198 181 149 354 325 324 25 50 95 135 91 16 15 225 249 354 292 353 344 339 299 248 237 242 238 221 238 245 232 235 243 248 261 267 260 254 250 254 261 270 270 276 278 276 278 279 276 274 275 273 285 291 292 293 292 290 291 293 286 289 290 289 286 285 284 283 283 285
203 211 217 211 216 211 206 203 235 243 223 235 234 281 306 310 254 185 94 228 142 53 342 10 56 73 126 155 166 176 211 256 80 294 323 266 302 317 316 277 260 247 241 270 282 260 228 245 231 243 244 248 254 254 251 261 260 266 267 274 277 283 282 279 278 275 270 283 287 289 291 291 292 292 292 290 290 290 287 283 279 276 276 278 279
209 206 210 217 220 231 220 216 222 216 242 224 261 256 258 245 157 127 233 118 92 66 25 306 350 23 45 65 99 128 154 113 250 335 1 319 349 317 325 347 326 257 266 288 283 285 271 248 259 252 248 243 243 246 253 260 265 262 265 271 278 280 282 282 280 279 275 278 284 285 287 289 290 290 291 291 291 293 290 284 277 272 270 267 273
199 207 206 210 209 230 232 226 204 225 237 239 249 264 273 322 177 198 113 145 136 126 32 354 117 305 22 54 49 61 67 87 133 149 158 150 318 319 278 347 357 16 8 297 299 299 298 299 264 253 249 248 238 236 237 247 256 266 274 276 276 279 282 282 278 277 279 274 279 283 286 288 289 288 288 289 291 293 293 290 284 276 268 259 272
212 204 210 205 208 211 214 237 236 241 249 261 271 247 232 178 124 135 192 144 166 180 107 216 112 92 39 30 50 50 23 40 81 94 122 125 284 267 300 323 359 331 335 322 298 290 279 271 271 275 262 260 250 244 241 242 253 255 267 271 275 279 280 279 278 279 281 281 276 284 288 289 289 289 289 288 288 290 291 292 290 287 264 268 270
227 223 213 209 206 201 206 217 232 248 264 269 290 275 242 211 197 196 194 73 1 38 153 216 221 191 150 143 89 31 26 2 23 55 44 62 176 269 268 330 356 290 318 313 294 279 275 274 294 290 280 269 269 261 245 241 245 254 260 268 277 281 285 287 286 284 283 282 282 285 287 289 290 290 291 291 291 291 292 292 294 294 290 279 272
211 217 213 212 200 202 204 217 221 238 262 263 243 232 235 198 171 182 169 100 30 12 54 85 121 359 168 153 160 165 178 168 220 202 146 201 26 305 306 232 232 301 287 304 308 289 269 278 276 296 302 301 295 289 282 280 268 258 269 287 291 290 292 294 291 288 285 282 282 284 287 291 292 294 296 297 296 296 295 294 294 295 295 290 276
214 211 216 216 209 209 219 228 235 235 247 237 243 240 242 181 163 180 170 160 203 119 103 85 118 33 283 190 170 154 145 162 195 157 136 179 155 258 276 303 327 235 279 309 281 293 316 318 294 288 313 330 339 312 300 311 305 308 310 291 293 300 301 297 296 294 290 287 288 291 293 296 298 301 303 302 302 302 300 298 296 295 295 294 286
221 211 219 210 210 217 227 235 250 241 242 241 248 233 229 192 179 179 176 185 199 204 169 214 197 223 266 185 173 162 208 233 152 147 114 133 125 52 266 197 262 303 292 360 324 317 275 301 332 337 346 4 359 359 347 337 313 300 301 299 294 292 296 303 305 302 299 298 297 298 301 305 311 314 312 309 306 305 305 303 302 299 299 298 295
203 212 211 205 207 216 211 225 238 251 239 231 234 214 207 202 183 182 196 190 158 160 180 224 234 247 220 259 270 228 243 163 163 139 153 117 52 141 294 318 240 296 293 340 305 8 318 333 342 331 18 16 356 346 347 330 316 304 304 295 294 311 327 328 323 319 318 319 321 321 322 324 323 321 318 314 311 310 311 310 307 304 301 299 301
205 215 211 206 212 212 211 214 234 241 237 229 230 211 222 232 212 207 208 181 183 166 222 220 264 231 202 217 237 242 249 212 172 184 172 177 166 177 117 357 343 6 339 314 330 267 248 297 295 331 4 2 350 342 338 336 317 320 335 333 335 336 336 331 328 329 330 330 329 326 326 325 324 320 320 320 321 321 322 318 313 310 309 309 307
211 210 221 210 216 217 216 216 213 219 221 220 213 211 223 228 266 256 266 243 210 243 254 210 239 234 233 207 186 238 230 214 197 188 195 181 167 153 124 114 107 322 336 337 348 303 257 291 315 285 312 348 328 334 327 335 337 342 350 350 343 333 325 328 331 336 338 337 333 331 328 325 323 322 325 330 330 329 328 324 316 314 317 316 314
210 207 216 212 216 215 219 225 212 207 207 215 213 212 213 246 259 265 265 289 287 256 251 239 251 238 235 212 213 237 242 194 194 193 189 187 192 185 173 162 164 136 303 324 284 259 304 273 333 296 309 328 336 334 346 341 337 341 337 335 331 319 325 329 340 347 346 341 340 340 338 335 332 332 337 336 330 326 318 318 311 315 321 320 318
206 213 207 211 213 218 214 223 218 205 209 206 207 212 198 226 244 253 254 302 290 301 273 255 266 251 253 258 250 257 260 189 210 208 186 192 185 197 202 186 162 170 180 213 275 222 262 301 206 266 320 325 332 330 339 329 326 333 334 333 332 331 332 343 352 349 346 345 344 343 342 340 337 338 340 339 334 327 322 322 326 325 323 322 319
206 217 215 213 210 216 213 221 216 215 209 210 203 210 203 221 232 240 254 237 251 267 266 250 267 255 282 282 283 269 279 276 248 220 213 187 205 196 205 168 192 174 168 162 235 285 187 263 290 243 263 301 319 319 324 331 328 342 336 338 338 338 350 349 347 348 344 342 341 340 339 336 334 335 337 336 334 332 331 329 326 323 319 320 319
211 211 217 216 211 213 211 213 217 214 210 213 200 206 204 220 226 234 246 227 238 246 263 255 263 273 282 290 277 264 282 286 279 255 231 220 193 196 195 195 199 179 159 166 186 263 238 223 260 290 290 281 306 326 333 339 337 352 346 336 336 342 354 345 345 340 337 338 339 338 336 333 332 332 334 334 332 331 331 330 328 325 321 320 321
211 214 219 221 215 212 210 209 213 212 211 215 206 200 202 219 226 226 237 226 234 249 248 273 272 273 268 261 273 264 233 243 258 273 273 241 200 205 191 183 200 192 174 176 202 263 294 248 251 264 310 345 320 340 352 336 335 335 338 330 337 346 338 344 336 331 334 337 337 335 334 332 331 331 331 333 334 334 336 337 339 338 334 332 332
208 220 219 220 216 212 210 213 212 212 211 214 213 199 208 218 229 219 225 220 229 246 255 265 272 265 260 263 279 283 223 222 251 260 252 241 209 216 226 204 215 202 210 176 214 219 271 309 293 287 289 359 323 292 6 338 322 330 328 321 326 325 336 342 339 330 332 334 333 332 331 330 330 331 331 333 335 337 341 345 347 346 342 340 336
216 217 220 218 216 210 214 214 211 214 212 214 213 208 215 218 224 229 222 216 217 231 237 245 253 259 264 256 265 273 270 245 240 236 220 227 219 218 227 204 216 212 201 203 179 227 253 274 258 295 282 317 279 287 325 307 282 267 286 307 319 322 337 339 332 327 327 330 329 328 328 329 331 332 334 336 339 343 346 349 351 351 350 349 351
224 222 217 218 213 212 215 214 209 213 213 213 213 211 218 219 223 229 231 225 220 222 225 233 238 236 239 250 257 259 261 253 254 238 229 224 222 228 242 224 223 229 207 200 216 218 233 257 292 235 282 315 294 281 265 282 284 309 288 291 307 322 328 336 332 323 325 324 326 327 328 329 331 336 340 344 345 347 349 353 358 1 2 3 3
228 224 225 216 211 206 215 214 205 195 216 20 284 272 303 283 276 273 257 239 231 227 225 229 235 231 233 231 248 250 249 262 276 269 244 238 243 237 248 229 216 221 200 204 217 214 226 253 277 281 283 283 254 287 283 343 330 327 319 317 305 311 316 317 315 317 315 322 327 327 328 331 335 340 343 347 346 348 354 359 4 7 7 7 6
223 220 218 213 205 203 177 164 164 166 167 170 175 185 194 195 185 210 250 259 252 239 235 236 239 233 232 235 241 246 249 243 260 266 264 252 242 234 239 246 236 230 227 220 204 203 207 242 240 291 319 273 316 297 301 38 340 321 322 313 315 303 322 329 329 325 328 326 333 333 333 334 336 336 342 344 345 350 356 358 5 7 6 6 4
220 219 217 214 208 176 190 196 190 177 184 199 202 203 211 212 211 209 217 235 250 255 246 239 239 232 225 228 233 231 233 233 241 251 261 259 236 240 234 234 229 214 251 252 208 202 208 237 258 237 267 286 236 284 307 304 268 239 283 323 325 313 300 323 324 324 325 320 315 311 321 322 328 336 336 338 342 347 352 352 5 5 5 3 1
221 222 220 215 187 176 197 211 206 188 193 199 206 213 218 226 227 235 233 229 234 243 249 246 239 236 229 227 231 229 223 227 226 239 218 234 230 240 239 232 236 220 242 246 216 207 210 219 235 257 237 264 318 275 285 333 1 349 328 321 309 319 325 329 299 311 312 323 330 338 337 340 340 338 339 337 340 345 350 352 1 2 3 1 359
224 224 222 193 173 185 199 208 203 196 199 208 206 207 213 223 217 238 243 244 239 238 245 249 246 238 237 232 232 232 224 226 225 224 214 212 215 230 240 200 204 203 229 232 224 209 218 206 253 242 289 298 279 312 328 333 327 292 288 296 276 293 305 318 320 287 264 321 322 332 332 341 336 340 338 339 339 346 346 349 357 359 358 358 358
233 222 207 193 186 188 191 200 199 195 203 210 215 214 211 206 213 228 240 247 248 249 244 249 252 246 240 234 234 233 232 234 240 243 240 232 224 214 236 205 202 191 202 208 219 225 224 235 248 243 282 285 283 286 266 252 272 297 319 323 323 317 326 317 301 277 317 344 339 340 326 332 348 334 341 339 333 343 337 348 354 352 354 359 1
234 221 204 198 198 193 193 194 199 201 203 209 211 208 209 212 210 219 234 249 255 256 252 246 251 252 247 240 239 244 248 258 263 271 272 258 240 231 236 221 196 191 194 212 238 218 207 222 225 197 229 272 281 262 253 274 270 266 276 298 302 326 337 338 328 326 307 23 338 334 322 329 4 346 333 332 334 337 338 343 348 355 357 359 1
289 247 207 202 196 192 194 197 201 205 212 215 205 205 210 215 218 219 226 237 249 251 251 251 252 256 257 251 242 239 240 242 232 242 259 247 234 239 243 242 228 217 205 200 224 209 194 215 245 246 227 260 271 291 282 260 282 297 281 299 279 305 319 318 305 303 293 1 338 325 310 314 1 346 334 333 334 332 333 334 350 353 358 0 2
89 48 349 343 338 326 247 204 200 211 216 213 203 201 207 220 242 253 244 240 242 247 245 245 249 255 260 256 240 247 247 232 194 200 172 145 117 188 235 248 249 234 221 210 202 195 174 182 203 244 219 225 266 276 230 276 334 310 310 316 301 299 278 290 279 295 303 345 338 322 316 313 351 346 337 326 332 331 332 344 349 353 359 1 1
81 109 118 117 125 112 347 314 283 238 209 35 17 347 328 291 239 226 233 236 235 237 237 243 260 343 324 310 271 248 243 246 218 202 165 144 129 102 78 49 127 6 155 195 218 218 186 190 180 217 242 162 238 276 307 332 314 297 298 288 296 301 294 273 278 285 285 352 332 321 308 327 343 345 335 321 327 327 331 343 349 355 1 2 2
134 159 168 174 190 200 191 195 214 31 29 18 13 350 320 282 260 232 227 227 225 218 227 243 245 224 230 239 249 244 226 221 226 210 168 160 136 135 122 108 75 87 73 56 62 139 200 201 206 234 288 256 258 278 284 290 268 264 262 258 270 273 283 294 292 255 288 16 15 29 339 316 328 348 325 320 322 319 330 345 353 360 4 4 3
145 147 23 20 24 36 51 74 80 79 310 359 333 289 275 269 267 240 213 194 113 80 251 239 247 258 262 263 259 279 244 217 212 254 208 166 151 160 156 115 88 77 81 107 80 66 71 76 66 276 359 336 293 282 291 303 308 310 319 342 354 332 345 349 331 335 343 355 37 25 335 312 324 347 319 312 318 315 337 2 357 2 4 4 3
124 91 101 135 101 89 101 115 131 124 172 309 323 320 306 301 285 256 234 171 177 195 214 211 206 240 239 234 195 204 275 251 255 13 316 187 142 156 155 141 76 98 95 23 48 65 41 30 30 29 266 279 347 340 2 358 259 255 101 54 23 354 38 12 338 2 339 350 9 20 318 307 330 342 328 324 320 306 340 7 2 358 2 1 1
150 182 146 84 55 31 49 95 190 174 115 15 1 351 349 347 328 291 278 237 219 221 213 195 216 230 229 222 194 186 207 275 24 70 49 86 125 134 150 166 205 213 49 2 7 29 34 38 56 13 263 342 14 46 46 55 77 44 60 55 328 22 42 35 349 318 300 347 26 4 358 309 317 346 341 313 319 320 24 16 358 352 1 0 357
142 130 100 65 74 104 122 126 48 67 57 13 15 6 12 9 0 309 280 252 222 220 209 202 192 189 212 230 192 144 149 123 44 56 54 75 120 115 147 167 217 251 32 330 24 15 11 16 5 10 21 41 65 52 42 44 45 49 57 59 30 68 59 30 14 328 4 334 17 12 12 319 13 354 4 347 0 304 20 11 348 345 1 360 357